API VERSION: 1.2 API SOURCE: NASA/JPL Horizons API ******************************************************************************* Revised: Apr 23, 2025 1967-040F Spacecraft / (Earth) -102770 Discarded Titan 3C Transtage rocket body ******************************************************************************* ******************************************************************************* Ephemeris / API_USER Wed Apr 23 18:33:45 2025 Pasadena, USA / Horizons ******************************************************************************* Target body name: Titan-3C RB (spacecraft) (-102770) {source: 1967-040F} Center body name: Earth (399) {source: DE441} Center-site name: El Berrueco ******************************************************************************* Start time : A.D. 2024-Oct-31 00:00:00.0000 UT Stop time : A.D. 2024-Nov-01 00:00:00.0000 UT Step-size : 10 minutes ******************************************************************************* Target pole/equ : undefined Target radii : undefined Center geodetic : 356.4134, 40.8833094, 1.06361 {E-lon(deg),Lat(deg),Alt(km)} Center cylindric: 356.4134,4829.88693,4153.33056 {E-lon(deg),Dxy(km),Dz(km)} Center pole/equ : ITRF93 {East-longitude positive} Center radii : 6378.137, 6378.137, 6356.752 km {Equator_a, b, pole_c} Target primary : Earth Vis. interferer : MOON (R_eq= 1737.400) km {source: DE441} Rel. light bend : Sun {source: DE441} Rel. lght bnd GM: 1.3271E+11 km^3/s^2 Atmos refraction: NO (AIRLESS) RA format : HMS Time format : CAL Calendar mode : Mixed Julian/Gregorian RTS-only print : NO EOP file : eop.250423.p250719 EOP coverage : DATA-BASED 1962-JAN-20 TO 2025-APR-23. PREDICTS-> 2025-JUL-18 Units conversion: 1 au= 149597870.700 km, c= 299792.458 km/s, 1 day= 86400.0 s Table cut-offs 1: Elevation ( 0.0deg=YES),Airmass (>38.000=NO), Daylight (YES) Table cut-offs 2: Solar elongation ( 12.0,180.0=YES),Local Hour Angle( 0.0=NO ) Table cut-offs 3: RA/DEC angular rate ( 0.0=NO ) *************************************************************************************************************************************************************************************************************************************************** Date__(UT)__HR:MN R.A._____(ICRF)_____DEC Azi____(a-app)___Elev APmag S-brt r rdot delta deldot S-O-T /r S-T-O T-O-M/MN_Illu% RA_3sigma DEC_3sigma Sky_motion Sky_mot_PA RelVel-ANG *************************************************************************************************************************************************************************************************************************************************** $$SOE 2024-Oct-31 00:00 02 08 25.53 +01 17 58.3 185.919765 50.388669 n.a. n.a. 0.993405738232 -1.7505593 0.00055680523965 -1.2802556 166.8254 /T 13.1673 164.5/ 2.0496 n.a. n.a. 122.55558 119.36174 -57.20514 2024-Oct-31 00:10 02 09 37.56 +01 07 51.5 189.322517 49.999231 n.a. n.a. 0.993398659696 -1.7806966 0.00055165221951 -1.2908230 166.7262 /T 13.2665 164.2/ 2.0248 n.a. n.a. 125.14090 119.43628 -57.11749 2024-Oct-31 00:20 02 10 51.10 +00 57 30.4 192.654238 49.510899 n.a. n.a. 0.993391459218 -1.8113927 0.00054645595315 -1.3018538 166.6166 /T 13.3761 163.9/ 2.0002 n.a. n.a. 127.88861 119.49159 -57.01955 2024-Oct-31 00:30 02 12 06.24 +00 46 54.6 195.903502 48.927763 n.a. n.a. 0.993384134511 -1.8426712 0.00054121451358 -1.3133827 166.4963 /T 13.4964 163.6/ 1.9759 n.a. n.a. 130.80593 119.52838 -56.91218 2024-Oct-31 00:40 02 13 23.11 +00 36 03.5 199.060931 48.254428 n.a. n.a. 0.993376683190 -1.8745569 0.00053592583460 -1.3254445 166.3648 /T 13.6279 163.3/ 1.9518 n.a. n.a. 133.90064 119.54743 -56.79620 2024-Oct-31 00:50 02 14 41.81 +00 24 56.4 202.119231 47.495885 n.a. n.a. 0.993369102770 -1.9070763 0.00053058770932 -1.3380745 166.2218 /T 13.7709 163.0/ 1.9279 n.a. n.a. 137.18109 119.54963 -56.67243 2024-Oct-31 01:00 02 16 02.48 +00 13 33.0 205.073129 46.657381 n.a. n.a. 0.993361390655 -1.9402574 0.00052519778874 -1.3513083 166.0667 /T 13.9260 162.7/ 1.9044 n.a. n.a. 140.65632 119.53595 -56.54168 2024-Oct-31 01:10 02 17 25.24 +00 01 52.4 207.919228 45.744300 n.a. n.a. 0.993353544133 -1.9741297 0.00051975358026 -1.3651819 165.8990 /T 14.0937 162.3/ 1.8811 n.a. n.a. 144.33610 119.50739 -56.40474 2024-Oct-31 01:20 02 18 50.22 -00 10 06.0 210.655808 44.762061 n.a. n.a. 0.993345560371 -2.0087249 0.00051425244615 -1.3797318 165.7183 /T 14.2744 162.0/ 1.8580 n.a. n.a. 148.23102 119.46502 -56.26237 2024-Oct-31 01:30 02 20 17.58 -00 22 23.0 213.282586 43.716034 n.a. n.a. 0.993337436404 -2.0440765 0.00050869160188 -1.3949947 165.5240 /T 14.4687 161.6/ 1.8353 n.a. n.a. 152.35258 119.40995 -56.11530 2024-Oct-31 01:40 02 21 47.45 -00 34 59.2 215.800479 42.611469 n.a. n.a. 0.993329169131 -2.0802200 0.00050306811441 -1.4110080 165.3154 /L 14.6773 161.2/ 1.8128 n.a. n.a. 156.71332 119.34333 -55.96422 2024-Oct-31 01:50 02 23 20.01 -00 47 55.7 218.211363 41.453449 n.a. n.a. 0.993320755301 -2.1171936 0.00049737890022 -1.4278094 165.0919 /L 14.9007 160.9/ 1.7907 n.a. n.a. 161.32691 119.26629 -55.80980 2024-Oct-31 02:00 02 24 55.40 -01 01 13.2 220.517845 40.246849 n.a. n.a. 0.993312191506 -2.1550378 0.00049162072323 -1.4454373 164.8528 /L 15.1398 160.5/ 1.7688 n.a. n.a. 166.20830 119.18001 -55.65265 2024-Oct-31 02:10 02 26 33.81 -01 14 52.8 222.723064 38.996319 n.a. n.a. 0.993303474171 -2.1937958 0.00048579019242 -1.4639307 164.5973 /L 15.3953 160.1/ 1.7473 n.a. n.a. 171.37389 119.08567 -55.49334 2024-Oct-31 02:20 02 28 15.43 -01 28 55.6 224.830516 37.706269 n.a. n.a. 0.993294599541 -2.2335140 0.00047988375914 -1.4833291 164.3247 /L 15.6679 159.6/ 1.7261 n.a. n.a. 176.84170 118.98441 -55.33239 2024-Oct-31 02:30 02 30 00.44 -01 43 22.8 226.843905 36.380865 n.a. n.a. 0.993285563669 -2.2742420 0.00047389771415 -1.5036732 164.0340 /L 15.9585 159.2/ 1.7052 n.a. n.a. 182.63157 118.87738 -55.17027 2024-Oct-31 02:40 02 31 49.06 -01 58 15.5 228.767013 35.024036 n.a. n.a. 0.993276362402 -2.3160329 0.00046782818419 -1.5250043 163.7244 /L 16.2681 158.7/ 1.6846 n.a. n.a. 188.76544 118.76571 -55.00737 2024-Oct-31 02:50 02 33 41.52 -02 13 35.3 230.603609 33.639481 n.a. n.a. 0.993266991366 -2.3589439 0.00046167112807 -1.5473648 163.3948 /L 16.5976 158.2/ 1.6644 n.a. n.a. 195.26758 118.65049 -54.84404 2024-Oct-31 03:00 02 35 38.05 -02 29 23.5 232.357355 32.230681 n.a. n.a. 0.993257445951 -2.4030361 0.00045542233227 -1.5707983 163.0442 /L 16.9482 157.7/ 1.6445 n.a. n.a. 202.16496 118.53280 -54.68054 2024-Oct-31 03:10 02 37 38.90 -02 45 41.8 234.031753 30.800918 n.a. n.a. 0.993247721290 -2.4483757 0.00044907740588 -1.5953497 162.6714 /L 17.3209 157.2/ 1.6249 n.a. n.a. 209.48758 118.41365 -54.51707 2024-Oct-31 03:20 02 39 44.36 -03 02 32.1 235.630087 29.353287 n.a. n.a. 0.993237812243 -2.4950338 0.00044263177486 -1.6210656 162.2751 /L 17.7171 156.7/ 1.6056 n.a. n.a. 217.26896 118.29403 -54.35377 2024-Oct-31 03:30 02 41 54.71 -03 19 56.3 237.155385 27.890719 n.a. n.a. 0.993227713373 -2.5430873 0.00043608067546 -1.6479942 161.8541 /L 18.1381 156.1/ 1.5867 n.a. n.a. 225.54661 118.17488 -54.19067 2024-Oct-31 03:40 02 44 10.28 -03 37 56.5 238.610388 26.415998 n.a. n.a. 0.993217418923 -2.5926193 0.00042941914680 -1.6761856 161.4067 /L 18.5854 155.5/ 1.5682 n.a. n.a. 234.36268 118.05710 -54.02773 2024-Oct-31 03:50 02 46 31.42 -03 56 35.1 239.997521 24.931780 n.a. n.a. 0.993206922788 -2.6437196 0.00042264202236 -1.7056923 160.9315 /L 19.0606 154.9/ 1.5500 n.a. n.a. 243.76463 117.94153 -53.86483 2024-Oct-31 04:00 02 48 58.51 -04 15 54.7 241.318873 23.440616 n.a. n.a. 0.993196218489 -2.6964859 0.00041574392041 -1.7365694 160.4267 /L 19.5653 154.3/ 1.5321 n.a. n.a. 253.80610 117.82895 -53.70174 2024-Oct-31 04:10 02 51 31.96 -04 35 58.3 242.576179 21.944968 n.a. n.a. 0.993185299139 -2.7510241 0.00040871923312 -1.7688747 159.8904 /L 20.1016 153.6/ 1.5146 n.a. n.a. 264.54795 117.72009 -53.53815 2024-Oct-31 04:20 02 54 12.22 -04 56 49.0 243.770790 20.447233 n.a. n.a. 0.993174157408 -2.8074494 0.00040156211424 -1.8026694 159.3204 /L 20.6714 152.9/ 1.4974 n.a. n.a. 276.05940 117.61563 -53.37362 2024-Oct-31 04:30 02 56 59.81 -05 18 30.3 244.903664 18.949764 n.a. n.a. 0.993162785485 -2.8658874 0.00039426646527 -1.8380182 158.7146 /L 21.2772 152.2/ 1.4805 n.a. n.a. 288.41954 117.51618 -53.20762 2024-Oct-31 04:40 02 59 55.26 -05 41 06.3 245.975329 17.454894 n.a. n.a. 0.993151175031 -2.9264751 0.00038682591986 -1.8749902 158.0704 /L 21.9213 151.4/ 1.4640 n.a. n.a. 301.71905 117.42229 -53.03950 2024-Oct-31 04:50 03 02 59.20 -06 04 41.3 246.985863 15.964956 n.a. n.a. 0.993139317134 -2.9893622 0.00037923382631 -1.9136589 157.3849 /L 22.6067 150.6/ 1.4479 n.a. n.a. 316.06234 117.33443 -52.86847 2024-Oct-31 05:00 03 06 12.32 -06 29 20.3 247.934852 14.482316 n.a. n.a. 0.993127202255 -3.0547126 0.00037148322804 -1.9541030 156.6551 /L 23.3364 149.7/ 1.4321 n.a. n.a. 331.57014 117.25300 -52.69359 2024-Oct-31 05:10 03 09 35.38 -06 55 08.9 248.821351 13.009395 n.a. n.a. 0.993114820167 -3.1227056 0.00036356684180 -1.9964070 155.8775 /L 24.1140 148.8/ 1.4166 n.a. n.a. 348.38274 117.17832 -52.51378 2024-Oct-31 05:20 A 03 13 09.24 -07 22 13.3 249.643830 11.548711 n.a. n.a. 0.993102159888 -3.1935383 0.00035547703359 -2.0406615 155.0482 /L 24.9432 147.9/ 1.4014 n.a. n.a. 366.66389 117.11062 -52.32778 2024-Oct-31 05:30 A 03 16 54.90 -07 50 40.6 250.400107 10.102909 n.a. n.a. 0.993089209612 -3.2674267 0.00034720579214 -2.0869643 154.1627 /L 25.8287 146.9/ 1.3866 n.a. n.a. 386.60582 117.05003 -52.13414 2024-Oct-31 05:40 Am 03 20 53.46 -08 20 38.8 251.087269 8.674812 n.a. n.a. 0.993075956620 -3.3446083 0.00033874470002 -2.1354205 153.2160 /L 26.7752 145.8/ 1.3721 n.a. n.a. 408.43535 116.99655 -51.93116 2024-Oct-31 05:50 Nm 03 25 06.20 -08 52 17.2 251.701569 7.267471 n.a. n.a. 0.993062387202 -3.4253437 0.00033008490256 -2.1861433 152.2025 /L 27.7886 144.7/ 1.3579 n.a. n.a. 432.42185 116.95004 -51.71692 2024-Oct-31 06:00 Nm 03 29 34.59 -09 25 46.3 252.238305 5.884234 n.a. n.a. 0.993048486547 -3.5099190 0.00032121707503 -2.2392542 151.1157 /L 28.8754 143.5/ 1.3441 n.a. n.a. 458.88721 116.91020 -51.48916 2024-Oct-31 06:10 Nm 03 34 20.34 -10 01 18.1 252.691665 4.528826 n.a. n.a. 0.993034238647 -3.5986478 0.00031213138894 -2.2948831 149.9480 /L 30.0431 142.2/ 1.3305 n.a. n.a. 488.21879 116.87652 -51.24529 2024-Oct-31 06:20 Cm 03 39 25.44 -10 39 06.7 253.054530 3.205444 n.a. n.a. 0.993019626178 -3.6918722 0.00030281747910 -2.3531679 148.6906 /L 31.3003 140.9/ 1.3173 n.a. n.a. 520.88630 116.84821 -50.98229 2024-Oct-31 06:30 Cm 03 44 52.22 -11 19 28.5 253.318231 1.918893 n.a. n.a. 0.993004630389 -3.7899638 0.00029326441401 -2.4142531 147.3335 /L 32.6574 139.4/ 1.3044 n.a. n.a. 557.46388 116.82417 -50.69661 >..... Daylight Cut-off Requested .....< >..... Elevation Cut-off Requested .....< 2024-Oct-31 17:20 C 22 39 39.42 +14 26 05.3 112.193331 44.194127 n.a. n.a. 0.992925309492 1.4759063 0.00048795643343 1.4384752 125.7675 /T 54.2097 135.3/ 0.7200 n.a. n.a. 160.84308 92.570193 56.594979 2024-Oct-31 17:30 C 22 41 28.17 +14 24 47.1 114.168031 45.606402 n.a. n.a. 0.992931180268 1.4538801 0.00049367906603 1.4175420 126.1937 /T 53.7834 135.7/ 0.7096 n.a. n.a. 155.71922 92.980229 56.754260 2024-Oct-31 17:40 N 22 43 13.44 +14 23 20.4 116.242741 47.004169 n.a. n.a. 0.992936963256 1.4320885 0.00049931966056 1.3975288 126.6058 /T 53.3711 136.0/ 0.6991 n.a. n.a. 150.87465 93.396500 56.912357 2024-Oct-31 17:50 N 22 44 55.43 +14 21 45.5 118.426148 48.383502 n.a. n.a. 0.992942659387 1.4105269 0.00050488183981 1.3784027 127.0046 /T 52.9723 136.4/ 0.6886 n.a. n.a. 146.29464 93.819075 57.068587 2024-Oct-31 18:00 N 22 46 34.29 +14 20 02.7 120.727628 49.740079 n.a. n.a. 0.992948269574 1.3891907 0.00051036909596 1.3601316 127.3907 /T 52.5860 136.7/ 0.6779 n.a. n.a. 141.96573 94.247906 57.222207 2024-Oct-31 18:10 N 22 48 10.21 +14 18 12.5 123.157181 51.069137 n.a. n.a. 0.992953794709 1.3680752 0.00051578479233 1.3426833 127.7647 /T 52.2118 137.0/ 0.6672 n.a. n.a. 137.87568 94.682829 57.372417 2024-Oct-31 18:20 A 22 49 43.33 +14 16 15.1 125.725325 52.365419 n.a. n.a. 0.992959235666 1.3471755 0.00052113216462 1.3260263 128.1275 /T 51.8490 137.3/ 0.6564 n.a. n.a. 134.01323 95.123559 57.518368 2024-Oct-31 18:30 A 22 51 13.80 +14 14 10.7 128.442912 53.623121 n.a. n.a. 0.992964593301 1.3264866 0.00052641432208 1.3101290 128.4794 /T 51.4969 137.6/ 0.6455 n.a. n.a. 130.36805 95.569689 57.659170 2024-Oct-31 18:40 A 22 52 41.76 +14 11 59.7 131.320847 54.835856 n.a. n.a. 0.992969868448 1.3060035 0.00053163424832 1.2949603 128.8212 /T 51.1550 137.9/ 0.6345 n.a. n.a. 126.93059 96.020687 57.793896 2024-Oct-31 18:50 22 54 07.36 +14 09 42.2 134.369689 55.996612 n.a. n.a. 0.992975061920 1.2857213 0.00053679480206 1.2804891 129.1533 /T 50.8227 138.1/ 0.6235 n.a. n.a. 123.69201 96.475900 57.921595 2024-Oct-31 19:00 22 55 30.73 +14 07 18.5 137.599104 57.097746 n.a. n.a. 0.992980174512 1.2656348 0.00054189871759 1.2666844 129.4764 /T 50.4996 138.4/ 0.6125 n.a. n.a. 120.64407 96.934551 58.041297 2024-Oct-31 19:10 22 56 51.98 +14 04 48.7 141.017146 58.130998 n.a. n.a. 0.992985207000 1.2457393 0.00054694860529 1.2535154 129.7908 /T 50.1851 138.6/ 0.6014 n.a. n.a. 117.77907 97.395749 58.152022 2024-Oct-31 19:20 22 58 11.24 +14 02 13.2 144.629371 59.087548 n.a. n.a. 0.992990160136 1.2260298 0.00055194695190 1.2409512 130.0971 /T 49.8786 138.8/ 0.5902 n.a. n.a. 115.08979 97.858489 58.252787 2024-Oct-31 19:30 22 59 28.64 +13 59 32.1 148.437794 59.958133 n.a. n.a. 0.992995034657 1.2065013 0.00055689612088 1.2289612 130.3958 /T 49.5799 139.0/ 0.5791 n.a. n.a. 112.56941 98.321663 58.342620 2024-Oct-31 19:40 23 00 44.26 +13 56 45.5 152.439754 60.733229 n.a. n.a. 0.992999831279 1.1871492 0.00056179835261 1.2175146 130.6872 /T 49.2883 139.3/ 0.5679 n.a. n.a. 110.21147 98.784066 58.420559 2024-Oct-31 19:50 23 01 58.24 +13 53 53.6 156.626794 61.403309 n.a. n.a. 0.993004550697 1.1679687 0.00056665576466 1.2065810 130.9719 /T 49.0035 139.5/ 0.5567 n.a. n.a. 108.00984 99.244413 58.485669 2024-Oct-31 20:00 23 03 10.66 +13 50 56.6 160.983736 61.959187 n.a. n.a. 0.993009193590 1.1489552 0.00057147035205 1.1961297 131.2503 /T 48.7250 139.7/ 0.5455 n.a. n.a. 105.95866 99.701348 58.537042 2024-Oct-31 20:10 23 04 21.64 +13 47 54.7 165.488142 62.392415 n.a. n.a. 0.993013760618 1.1301041 0.00057624398759 1.1861304 131.5227 /T 48.4525 139.9/ 0.5343 n.a. n.a. 104.05231 100.15346 58.573808 2024-Oct-31 20:20 23 05 31.26 +13 44 48.1 170.110390 62.695722 n.a. n.a. 0.993018252423 1.1114110 0.00058097842210 1.1765526 131.7895 /T 48.1856 140.0/ 0.5231 n.a. n.a. 102.28538 100.59930 58.595138 2024-Oct-31 20:30 23 06 39.62 +13 41 36.8 174.814507 62.863447 n.a. n.a. 0.993022669627 1.0928715 0.00058567528492 1.1673661 132.0511 /T 47.9238 140.2/ 0.5119 n.a. n.a. 100.65266 101.03739 58.600252 2024-Oct-31 20:40 e 23 07 46.81 +13 38 21.1 179.559800 62.891896 n.a. n.a. 0.993027012839 1.0744813 0.00059033608439 1.1585409 132.3080 /T 47.6669 140.4/ 0.5008 n.a. n.a. 99.149095 101.46627 58.588418 2024-Oct-31 20:50 t 23 08 52.92 +13 35 01.0 184.303150 62.779591 n.a. n.a. 0.993031282646 1.0562362 0.00059496220832 1.1500469 132.5603 /T 47.4145 140.5/ 0.4897 n.a. n.a. 97.769799 101.88449 58.558962 2024-Oct-31 21:00 23 09 58.03 +13 31 36.8 189.001657 62.527350 n.a. n.a. 0.993035479623 1.0381322 0.00059955492482 1.1418544 132.8085 /T 47.1662 140.7/ 0.4786 n.a. n.a. 96.510011 102.29062 58.511264 2024-Oct-31 21:10 23 11 02.22 +13 28 08.6 193.615266 62.138201 n.a. n.a. 0.993039604327 1.0201652 0.00060411538294 1.1339338 133.0529 /T 46.9217 140.9/ 0.4676 n.a. n.a. 95.365099 102.68330 58.444762 2024-Oct-31 21:20 23 12 05.57 +13 24 36.6 198.108968 61.617135 n.a. n.a. 0.993043657297 1.0023313 0.00060864461363 1.1262557 133.2939 /T 46.6807 141.0/ 0.4567 n.a. n.a. 94.330549 103.06124 58.358953 2024-Oct-31 21:30 23 13 08.16 +13 21 00.8 202.454308 60.970740 n.a. n.a. 0.993047639059 0.9846266 0.00061314353080 1.1187912 133.5316 /T 46.4429 141.2/ 0.4458 n.a. n.a. 93.401959 103.42324 58.253392 2024-Oct-31 21:40 23 14 10.06 +13 17 21.5 206.630098 60.206781 n.a. n.a. 0.993051550124 0.9670475 0.00061761293237 1.1115115 133.7664 /T 46.2079 141.3/ 0.4350 n.a. n.a. 92.575032 103.76819 58.127689 2024-Oct-31 21:50 23 15 11.34 +13 13 38.8 210.622377 59.333768 n.a. n.a. 0.993055390987 0.9495903 0.00062205350171 1.1043881 133.9986 /T 45.9757 141.4/ 0.4243 n.a. n.a. 91.845572 104.09511 57.981509 2024-Oct-31 22:00 23 16 12.06 +13 09 52.8 214.423805 58.360556 n.a. n.a. 0.993059162128 0.9322515 0.00062646580896 1.0973930 134.2284 /T 45.7457 141.6/ 0.4136 n.a. n.a. 91.209484 104.40314 57.814571 2024-Oct-31 22:10 23 17 12.30 +13 06 03.7 218.032690 57.296021 n.a. n.a. 0.993062864015 0.9150274 0.00063085031260 1.0904987 134.4562 /T 45.5179 141.7/ 0.4031 n.a. n.a. 90.662770 104.69155 57.626643 2024-Oct-31 22:20 23 18 12.11 +13 02 11.6 221.451857 56.148802 n.a. n.a. 0.993066497101 0.8979147 0.00063520736121 1.0836778 134.6822 /T 45.2918 141.9/ 0.3927 n.a. n.a. 90.201527 104.95975 57.417537 2024-Oct-31 22:30 23 19 11.56 +12 58 16.7 224.687527 54.927121 n.a. n.a. 0.993070061824 0.8809101 0.00063953719526 1.0769037 134.9065 /T 45.0674 142.0/ 0.3824 n.a. n.a. 89.821950 105.20728 57.187113 2024-Oct-31 22:40 23 20 10.70 +12 54 19.1 227.748294 53.638668 n.a. n.a. 0.993073558612 0.8640104 0.00064383994913 1.0701503 135.1296 /T 44.8443 142.1/ 0.3722 n.a. n.a. 89.520324 105.43385 56.935265 2024-Oct-31 22:50 23 21 09.60 +12 50 19.0 230.644268 52.290547 n.a. n.a. 0.993076987877 0.8472123 0.00064811565321 1.0633917 135.3515 /T 44.6223 142.2/ 0.3622 n.a. n.a. 89.293032 105.63928 56.661928 2024-Oct-31 23:00 23 22 08.30 +12 46 16.4 233.386386 50.889250 n.a. n.a. 0.993080350020 0.8305127 0.00065236423617 1.0566030 135.5724 /T 44.4013 142.4/ 0.3523 n.a. n.a. 89.136546 105.82353 56.367068 2024-Oct-31 23:10 23 23 06.85 +12 42 11.6 235.985895 49.440674 n.a. n.a. 0.993083645430 0.8139086 0.00065658552726 1.0497597 135.7927 /T 44.1809 142.5/ 0.3425 n.a. n.a. 89.047431 105.98671 56.050680 2024-Oct-31 23:20 23 24 05.30 +12 38 04.7 238.453969 47.950141 n.a. n.a. 0.993086874482 0.7973970 0.00066077925896 1.0428380 136.0125 /T 43.9611 142.6/ 0.3329 n.a. n.a. 89.022343 106.12903 55.712785 2024-Oct-31 23:30 23 25 03.71 +12 33 55.8 240.801459 46.422446 n.a. n.a. 0.993090037543 0.7809750 0.00066494506944 1.0358146 136.2320 /T 43.7415 142.7/ 0.3234 n.a. n.a. 89.058026 106.25083 55.353428 2024-Oct-31 23:40 23 26 02.11 +12 29 45.1 243.038716 44.861896 n.a. n.a. 0.993093134964 0.7646398 0.00066908250545 1.0286672 136.4513 /T 43.5221 142.9/ 0.3141 n.a. n.a. 89.151311 106.35253 54.972675 2024-Oct-31 23:50 23 27 00.54 +12 25 32.7 245.175503 43.272361 n.a. n.a. 0.993096167087 0.7483886 0.00067319102503 1.0213740 136.6707 /T 43.3027 143.0/ 0.3050 n.a. n.a. 89.299116 106.43468 54.570609 2024-Nov-01 00:00 23 27 59.06 +12 21 18.7 247.220942 41.657318 n.a. n.a. 0.993099134243 0.7322186 0.00067727000053 1.0139139 136.8903 /T 43.0831 143.1/ 0.2960 n.a. n.a. 89.498440 106.49787 54.147329 $$EOE *************************************************************************************************************************************************************************************************************************************************** Column meaning: TIME Times PRIOR to 1962 are UT1, a mean-solar time closely related to the prior but now-deprecated GMT. Times AFTER 1962 are in UTC, the current civil or "wall-clock" time-scale. UTC is kept within 0.9 seconds of UT1 using integer leap-seconds for 1972 and later years. Conversion from the internal Barycentric Dynamical Time (TDB) of solar system dynamics to the non-uniform civil UT time-scale requested for output has not been determined for UTC times after the next July or January 1st. Therefore, the last known leap-second is used as a constant over future intervals. Time tags refer to the UT time-scale conversion from TDB on Earth regardless of observer location within the solar system, although clock rates may differ due to the local gravity field and no analog to "UT" may be defined for that location. Any 'b' symbol in the 1st-column denotes a B.C. date. First-column blank (" ") denotes an A.D. date. CALENDAR SYSTEM Mixed calendar mode was active such that calendar dates after AD 1582-Oct-15 (if any) are in the modern Gregorian system. Dates prior to 1582-Oct-5 (if any) are in the Julian calendar system, which is automatically extended for dates prior to its adoption on 45-Jan-1 BC. The Julian calendar is useful for matching historical dates. The Gregorian calendar more accurately corresponds to the Earth's orbital motion and seasons. A "Gregorian-only" calendar mode is available if such physical events are the primary interest. NOTE: "n.a." in output means quantity "not available" at the print-time. SOLAR PRESENCE (OBSERVING SITE) Time tag is followed by a blank, then a solar-presence condition code: '*' Daylight (refracted solar upper-limb on or above apparent horizon) 'C' Civil twilight/dawn 'N' Nautical twilight/dawn 'A' Astronomical twilight/dawn ' ' Night OR geocentric ephemeris LUNAR PRESENCE WITH TARGET RISE/TRANSIT/SET EVENT MARKER (OBSERVING SITE) The solar-presence code column is immediately followed by another marker: 'm' Refracted upper-limb of Moon on or above apparent horizon ' ' Refracted upper-limb of Moon below apparent horizon OR geocentric The lunar presence marker (an ongoing state) can be over-ridden by a target event marker if an event has occurred since the last output step: 'r' Rise (target body on or went above cut-off RTS elevation) 'e' Elevation max (target body maximum elevation angle has occurred) 't' Transit (target body at or passed through observer meridian) 's' Set (target body on or went below cut-off RTS elevation) RTS MARKERS (TVH) Rise and set are with respect to the reference ellipsoid true visual horizon defined by the elevation cut-off angle. Horizon dip and yellow-light refraction (Earth only) are considered. Accuracy is < or = to twice the requested search step-size. 'R.A._____(ICRF)_____DEC' = Astrometric right ascension and declination of the target center with respect to the observing site (coordinate origin) in the reference frame of the planetary ephemeris (ICRF). Compensated for down-leg light-time delay aberration. Units: RA in hours-minutes-seconds of time, HH MM SS.ff{ffff} DEC in degrees-minutes-seconds of arc, sDD MN SC.f{ffff} 'Azi____(a-app)___Elev' = Airless apparent azimuth and elevation of target center. Compensated for light-time, the gravitational deflection of light, stellar aberration, precession and nutation. Azimuth is measured clockwise from north: North(0) -> East(90) -> South(180) -> West(270) -> North (360) Elevation angle is with respect to a plane perpendicular to the reference surface local zenith direction. TOPOCENTRIC ONLY. Units: DEGREES 'APmag S-brt' = The targets' approximate apparent visual magnitude and surface brightness. For planets and natural satellites, output is restricted to solar phase angles covered by observational data. Outside the observed phase angle range, "n.a." may be output to avoid extrapolation beyond the limit of model validity. For Earth-based observers, the estimated dimming due to atmospheric absorption (extinction) is available as a separate, requestable quantity. Surface brightness is the average airless visual magnitude of a square-arcsecond of the illuminated portion of the apparent disk. It is computed only if the target radius is known. Units: MAGNITUDES & MAGNITUDES PER SQUARE ARCSECOND 'r rdot' = The Sun's apparent range ("r", light-time aberrated) and range-rate ("rdot") relative to the target center, as seen by the observer. A positive "rdot" means the target center was moving away from the Sun, negative means moving toward the Sun. Units: AU and KM/S 'delta deldot' = Apparent range ("delta", light-time aberrated) and range-rate ("delta-dot") of the target center relative to the observer. A positive "deldot" means the target center is moving away from the observer, negative indicates movement toward the observer. Units: AU and KM/S 'S-O-T /r' = Sun-Observer-Target apparent SOLAR ELONGATION ANGLE seen from the observers' location at print-time. The '/r' column provides a code indicating the targets' apparent position relative to the Sun in the observers' sky, as described below: Case A: For an observing location on the surface of a rotating body, that body rotational sense is considered: /T indicates target TRAILS Sun (evening sky: rises and sets AFTER Sun) /L indicates target LEADS Sun (morning sky: rises and sets BEFORE Sun) Case B: For an observing point that does not have a rotational model (such as a spacecraft), the "leading" and "trailing" condition is defined by the observers' heliocentric ORBITAL motion: * If continuing in the observers' current direction of heliocentric motion would encounter the targets' apparent longitude first, followed by the Sun's, the target LEADS the Sun as seen by the observer. * If the Sun's apparent longitude would be encountered first, followed by the targets', the target TRAILS the Sun. Two other codes can be output: /* indicates observer is Sun-centered (undefined) /? Target is aligned with Sun center (no lead or trail) The S-O-T solar elongation angle is numerically the minimum separation angle of the Sun and target in the sky in any direction. It does NOT indicate the amount of separation in the leading or trailing directions, which would be defined along the equator of a spherical coordinate system. Units: DEGREES 'S-T-O' = The Sun-Target-Observer angle; the interior vertex angle at target center formed by a vector from the target to the apparent center of the Sun (at reflection time on the target) and the apparent vector from target to the observer at print-time. Slightly different from true PHASE ANGLE (requestable separately) at the few arcsecond level in that it includes stellar aberration on the down-leg from target to observer. Units: DEGREES 'T-O-M/MN_Illu%' = Target-Observer-Moon LUNAR ELONGATION angle and illuminated percentage. The apparent lunar elongation angle between target body center and Moon center, seen from the observing site, along with fraction of the lunar disk illuminated by the Sun. A negative lunar elongation angle indicates the target center is behind the Moon. Units: DEGREES & PERCENT 'RA_3sigma DEC_3sigma' = Uncertainty in Right-Ascension and Declination. Output values are the formal +/- 3 standard-deviations (sigmas) around nominal position. Units: ARCSECONDS 'Sky_motion Sky_mot_PA RelVel-ANG' = Total apparent angular rate of the target in the plane-of-sky. "Sky_mot_PA" is the position angle of the target's direction of motion in the plane-of-sky, measured counter-clockwise from the apparent of-date north pole direction. "RelVel-ANG" is the flight path angle of the target's relative motion with respect to the observer's line-of-sight, in the range [-90,+90], where positive values indicate motion away from the observer, negative values are toward the observer: -90 = target is moving directly toward the observer 0 = target is moving at right angles to the observer's line-of-sight +90 = target is moving directly away from the observer UNITS: ARCSECONDS/MINUTE, DEGREES, DEGREES Computations by ... Solar System Dynamics Group, Horizons On-Line Ephemeris System 4800 Oak Grove Drive, Jet Propulsion Laboratory Pasadena, CA 91109 USA General site: https://ssd.jpl.nasa.gov/ Mailing list: https://ssd.jpl.nasa.gov/email_list.html System news : https://ssd.jpl.nasa.gov/horizons/news.html User Guide : https://ssd.jpl.nasa.gov/horizons/manual.html Connect : browser https://ssd.jpl.nasa.gov/horizons/app.html#/x API https://ssd-api.jpl.nasa.gov/doc/horizons.html command-line telnet ssd.jpl.nasa.gov 6775 e-mail/batch https://ssd.jpl.nasa.gov/ftp/ssd/horizons_batch.txt scripts https://ssd.jpl.nasa.gov/ftp/ssd/SCRIPTS Author : Jon.D.Giorgini@jpl.nasa.gov ***************************************************************************************************************************************************************************************************************************************************